CW6076 Weather Reports


time (UTC)temp
F
wind
direction
speed
knots
gust
knots
rain 1hr
in
rain 24hr
in
rain mn
in
humidity
%
barometer
mb
20260505124603 62 69 5.2 11.3 0.00 0.05 0.01 52 1015.3
20260505123100 61 336 2.6 10.4 0.00 0.05 0.01 53 1015.3
20260505121602 61 300 2.6 9.6 0.00 0.05 0.01 53 1015.4
20260505120117 61 360 2.6 11.3 0.00 0.05 0.01 52 1015.3
20260505120003 61 59 2.6 11.3 0.00 0.05 0.01 52 1015.3
20260505114601 61 341 5.2 10.4 0.00 0.05 0.01 53 1015.4
20260505113106 60 355 5.2 8.7 0.00 0.05 0.01 52 1015.6
20260505111605 61 315 3.5 7.8 0.00 0.05 0.01 53 1015.5
20260505101605 59 40 2.6 6.1 0.00 0.05 0.01 57 1015.9
20260505100003 57 17 4.3 10.4 0.00 0.05 0.01 59 1016.0
20260505094607 58 335 2.6 7.8 0.00 0.05 0.01 59 1015.9
20260505093100 58 15 3.5 7.8 0.00 0.05 0.01 60 1016.0
20260505091616 58 13 1.7 7.8 0.00 0.05 0.01 62 1016.1
20260505090104 56 26 3.5 8.7 0.00 0.05 0.01 65 1016.1
20260505090005 56 347 2.6 8.7 0.00 0.05 0.01 65 1016.1
20260505084607 56 82 3.5 8.7 0.00 0.05 0.01 66 1016.2
20260505083108 55 55 3.5 10.4 0.00 0.05 0.01 68 1016.2
20260505081600 55 5 2.6 7.0 0.00 0.05 0.01 73 1016.3
20260505080100 54 106 0.9 5.2 0.00 0.05 0.01 77 1016.2
20260505080008 54 112 0.9 7.8 0.00 0.05 0.01 77 1016.2
20260505074600 53 47 1.7 4.3 0.00 0.05 0.01 79 1016.2
20260505073103 52 355 1.7 5.2 0.00 0.05 0.01 81 1016.2
20260505071602 52 5 1.7 3.5 0.00 0.05 0.01 84 1016.4
20260505070107 51 30 0.9 4.3 0.00 0.05 0.01 86 1016.3
20260505070002 51 329 0.9 4.3 0.00 0.05 0.01 86 1016.3
20260505064600 51 11 0.9 4.3 0.00 0.05 0.01 87 1016.3
20260505063100 51 333 0.0 2.6 0.00 0.05 0.01 87 1016.3
20260505061625 51 355 0.9 3.5 0.00 0.05 0.01 87 1016.2
20260505060003 51 9 1.7 4.3 0.00 0.05 0.01 87 1016.1
20260505054600 51 22 2.6 5.2 0.00 0.05 0.01 87 1016.1
20260505053100 51 25 2.6 4.3 0.00 0.05 0.01 87 1016.1
20260505051600 51 22 0.9 7.0 0.00 0.05 0.01 87 1016.1
20260505041605 52 348 1.7 4.3 0.00 0.05 0.01 87 1015.8
20260505040104 52 69 0.9 3.5 0.00 0.05 0.01 87 1015.8
20260505040005 52 110 0.9 3.5 0.00 0.05 0.01 87 1015.8
20260505034611 52 39 0.9 3.5 0.00 0.05 0.01 88 1015.9
20260505033105 52 355 0.0 2.6 0.00 0.05 0.01 88 1015.8
20260505031600 52 355 0.0 2.6 0.00 0.05 0.01 88 1015.8
20260505030100 52 348 0.9 4.3 0.00 0.05 0.01 88 1015.8
20260505030005 52 13 0.9 4.3 0.00 0.05 0.01 88 1015.8
20260505024559 52 50 1.7 4.3 0.00 0.05 0.01 88 1015.8
20260505023100 53 60 1.7 4.3 0.00 0.05 0.01 89 1015.8
20260505021602 53 38 0.0 2.6 0.00 0.05 0.01 89 1015.8
20260505020100 53 47 1.7 5.2 0.00 0.05 0.01 89 1015.8
20260505020005 53 5 1.7 5.2 0.00 0.05 0.01 89 1015.8
20260505014608 53 18 1.7 3.5 0.00 0.05 0.01 89 1015.9
20260505013104 53 38 0.9 2.6 0.00 0.05 0.01 89 1016.1
20260505011618 53 360 0.9 3.5 0.00 0.05 0.01 90 1016.1
20260505010108 53 355 2.6 4.3 0.00 0.05 0.01 89 1016.2
20260505010002 53 18 2.6 4.3 0.00 0.05 0.01 90 1016.2
20260505004602 54 21 1.7 4.3 0.00 0.05 0.01 90 1016.3
20260505003059 54 20 1.7 4.3 0.00 0.05 0.01 90 1016.3
20260505001601 54 32 1.7 3.5 0.01 0.05 0.01 89 1016.4
20260505000108 54 15 0.9 1.7 0.01 0.05 0.01 89 1016.5
20260505000003 54 25 0.9 1.7 0.01 0.05 0.01 89 1016.5
20260504234502 55 66 0.0 0.9 0.01 0.05 0.01 89 1016.5
20260504233002 55 59 0.0 0.0 0.01 0.05 0.01 89 1016.5
20260504231502 55 59 0.0 0.0 0.00 0.04 0.00 89 1016.5
20260504230006 55 16 0.0 0.0 0.00 0.04 0.00 89 1016.4
20260504224502 55 16 0.0 0.0 0.00 0.04 0.04 88 1016.5
20260504223002 55 29 0.0 2.6 0.01 0.04 0.04 88 1016.5
20260504221502 55 26 1.7 4.3 0.02 0.04 0.04 88 1016.6
20260504220009 56 22 1.7 4.3 0.02 0.04 0.04 87 1016.5
20260504214501 56 5 2.6 4.3 0.02 0.04 0.04 86 1016.6
20260504213002 56 355 2.6 5.2 0.02 0.03 0.03 85 1016.6
20260504211502 56 344 1.7 6.1 0.02 0.02 0.02 85 1016.6
20260504210004 57 9 2.6 7.8 0.02 0.02 0.02 85 1016.5
20260504204501 58 44 0.9 2.6 0.02 0.02 0.02 84 1016.4
20260504203002 58 26 0.9 3.5 0.02 0.02 0.02 83 1016.4
20260504201501 58 320 0.0 2.6 0.00 0.00 0.00 83 1016.2
20260504200006 58 13 0.0 2.6 0.00 0.00 0.00 83 1016.1
20260504194502 59 276 0.0 0.9 0.00 0.00 0.00 82 1016.0
20260504193002 59 276 0.0 0.9 0.00 0.00 0.00 80 1015.8
20260504191502 59 307 0.0 1.7 0.00 0.00 0.00 80 1015.7
20260504190010 59 311 0.0 0.9 0.00 0.00 0.00 79 1015.6
20260504184504 60 281 0.0 2.6 0.00 0.00 0.00 78 1015.5
20260504183001 60 264 2.6 6.1 0.00 0.00 0.00 78 1015.5
20260504181502 61 333 1.7 4.3 0.00 0.00 0.00 77 1015.4
20260504180004 62 344 1.7 4.3 0.00 0.00 0.00 74 1015.3
20260504174502 62 157 2.6 6.1 0.00 0.00 0.00 73 1015.2
20260504173001 62 143 2.6 5.2 0.00 0.00 0.00 75 1015.2
20260504171506 61 168 3.5 6.1 0.00 0.00 0.00 73 1015.4